TimeCDT,TemperatureF,Dew PointF,Humidity,Sea Level PressureIn,VisibilityMPH,Wind Direction,Wind SpeedMPH,Gust SpeedMPH,PrecipitationIn,Events,Conditions,WindDirDegrees,DateUTC
12:15 AM,62.6,39.2,42,29.82,10.0,WSW,10.4,-,N/A,,Clear,250,2013-05-16 05:15:00
12:35 AM,62.6,39.2,42,29.82,10.0,WSW,9.2,-,N/A,,Clear,250,2013-05-16 05:35:00
12:55 AM,62.6,39.2,42,29.83,10.0,WSW,8.1,-,N/A,,Clear,250,2013-05-16 05:55:00
1:15 AM,60.8,39.2,45,29.82,10.0,WSW,8.1,-,N/A,,Clear,250,2013-05-16 06:15:00
1:35 AM,60.8,41.0,48,29.82,10.0,West,6.9,-,N/A,,Clear,260,2013-05-16 06:35:00
1:55 AM,60.8,41.0,48,29.82,10.0,West,8.1,-,N/A,,Clear,260,2013-05-16 06:55:00
2:15 AM,60.8,42.8,52,29.83,10.0,West,9.2,-,N/A,,Clear,260,2013-05-16 07:15:00
2:35 AM,60.8,42.8,52,29.83,10.0,West,10.4,-,N/A,,Clear,260,2013-05-16 07:35:00
2:55 AM,59.0,42.8,55,29.83,10.0,WSW,9.2,-,N/A,,Clear,250,2013-05-16 07:55:00
3:15 AM,59.0,42.8,55,29.84,10.0,West,9.2,-,N/A,,Clear,260,2013-05-16 08:15:00
3:35 AM,59.0,42.8,55,29.84,10.0,West,9.2,-,N/A,,Clear,260,2013-05-16 08:35:00
3:55 AM,57.2,42.8,59,29.85,10.0,West,9.2,-,N/A,,Clear,260,2013-05-16 08:55:00
4:15 AM,57.2,42.8,59,29.86,10.0,West,9.2,-,N/A,,Clear,260,2013-05-16 09:15:00
4:35 AM,57.2,42.8,59,29.86,10.0,West,8.1,-,N/A,,Clear,270,2013-05-16 09:35:00
4:55 AM,57.2,42.8,59,29.87,10.0,West,4.6,-,N/A,,Clear,270,2013-05-16 09:55:00
5:15 AM,57.2,42.8,59,29.87,10.0,West,6.9,-,N/A,,Clear,280,2013-05-16 10:15:00
5:35 AM,55.4,42.8,63,29.88,10.0,West,6.9,-,N/A,,Clear,270,2013-05-16 10:35:00
5:55 AM,57.2,42.8,59,29.88,10.0,West,4.6,-,N/A,,Clear,280,2013-05-16 10:55:00
6:15 AM,57.2,42.8,59,29.88,10.0,WNW,5.8,-,N/A,,Clear,300,2013-05-16 11:15:00
6:35 AM,57.2,42.8,59,29.89,10.0,NW,3.5,-,N/A,,Clear,310,2013-05-16 11:35:00
6:55 AM,59.0,44.6,59,29.90,10.0,WNW,4.6,-,N/A,,Clear,300,2013-05-16 11:55:00
7:15 AM,60.8,44.6,55,29.91,10.0,West,5.8,-,N/A,,Clear,270,2013-05-16 12:15:00
7:35 AM,62.6,44.6,52,29.91,10.0,NNW,5.8,-,N/A,,Clear,330,2013-05-16 12:35:00
7:55 AM,64.4,44.6,49,29.92,10.0,North,4.6,-,N/A,,Clear,10,2013-05-16 12:55:00
8:15 AM,66.2,42.8,43,29.92,10.0,NNW,8.1,-,N/A,,Clear,340,2013-05-16 13:15:00
8:35 AM,66.2,42.8,43,29.93,10.0,NNE,5.8,-,N/A,,Clear,20,2013-05-16 13:35:00
8:55 AM,66.2,42.8,43,29.93,10.0,North,9.2,-,N/A,,Clear,350,2013-05-16 13:55:00
9:15 AM,66.2,42.8,43,29.94,10.0,NE,8.1,-,N/A,,Clear,40,2013-05-16 14:15:00
9:35 AM,66.2,41.0,40,29.95,10.0,NNE,10.4,-,N/A,,Clear,20,2013-05-16 14:35:00
9:55 AM,62.6,41.0,45,29.96,10.0,NE,11.5,16.1,N/A,,Clear,40,2013-05-16 14:55:00
10:15 AM,60.8,37.4,42,29.97,10.0,NE,10.4,-,N/A,,Clear,40,2013-05-16 15:15:00
10:35 AM,59.0,35.6,42,29.98,10.0,NE,10.4,-,N/A,,Clear,50,2013-05-16 15:35:00
10:55 AM,60.8,37.4,42,29.98,10.0,NNE,6.9,-,N/A,,Clear,30,2013-05-16 15:55:00
11:15 AM,60.8,37.4,42,29.99,10.0,NE,9.2,-,N/A,,Clear,50,2013-05-16 16:15:00
11:35 AM,60.8,37.4,42,29.99,10.0,NE,12.7,-,N/A,,Clear,50,2013-05-16 16:35:00
11:55 AM,60.8,35.6,39,30.00,10.0,NE,11.5,17.3,N/A,,Clear,40,2013-05-16 16:55:00
12:15 PM,59.0,35.6,42,29.99,10.0,NE,10.4,18.4,N/A,,Clear,40,2013-05-16 17:15:00
12:35 PM,60.8,35.6,39,29.99,10.0,NE,11.5,-,N/A,,Clear,40,2013-05-16 17:35:00
12:55 PM,60.8,37.4,42,29.99,10.0,NNE,9.2,-,N/A,,Clear,20,2013-05-16 17:55:00
1:15 PM,60.8,37.4,42,29.99,10.0,NNE,10.4,-,N/A,,Clear,30,2013-05-16 18:15:00
1:35 PM,62.6,37.4,39,29.99,10.0,ENE,11.5,-,N/A,,Clear,60,2013-05-16 18:35:00
2:15 PM,62.6,37.4,39,29.98,10.0,ENE,10.4,-,N/A,,Clear,60,2013-05-16 19:15:00
2:35 PM,60.8,37.4,42,29.99,10.0,NNE,10.4,-,N/A,,Clear,30,2013-05-16 19:35:00
2:55 PM,62.6,37.4,39,29.99,10.0,NE,8.1,-,N/A,,Clear,50,2013-05-16 19:55:00
3:15 PM,62.6,39.2,42,29.99,10.0,ENE,9.2,16.1,N/A,,Clear,60,2013-05-16 20:15:00
3:35 PM,62.6,37.4,39,29.99,10.0,ENE,9.2,-,N/A,,Clear,70,2013-05-16 20:35:00
3:55 PM,62.6,37.4,39,30.00,10.0,East,10.4,-,N/A,,Clear,80,2013-05-16 20:55:00
4:15 PM,62.6,37.4,39,29.99,10.0,ENE,9.2,-,N/A,,Clear,70,2013-05-16 21:15:00
4:35 PM,62.6,37.4,39,29.99,10.0,ENE,10.4,-,N/A,,Clear,70,2013-05-16 21:35:00
5:15 PM,60.8,35.6,39,29.98,10.0,ENE,10.4,-,N/A,,Clear,70,2013-05-16 22:15:00
5:35 PM,60.8,35.6,39,29.98,10.0,ENE,11.5,-,N/A,,Clear,60,2013-05-16 22:35:00
5:55 PM,60.8,35.6,39,29.99,10.0,ENE,10.4,-,N/A,,Clear,60,2013-05-16 22:55:00
6:15 PM,60.8,35.6,39,29.99,10.0,ENE,11.5,-,N/A,,Clear,60,2013-05-16 23:15:00
6:35 PM,59.0,32.0,36,29.99,10.0,NE,6.9,16.1,N/A,,Clear,40,2013-05-16 23:35:00
6:55 PM,57.2,33.8,41,29.99,10.0,NE,5.8,16.1,N/A,,Clear,40,2013-05-16 23:55:00
7:15 PM,57.2,33.8,41,30.00,10.0,NE,5.8,-,N/A,,Clear,50,2013-05-17 00:15:00
7:35 PM,55.4,33.8,44,30.01,10.0,NE,6.9,-,N/A,,Scattered Clouds,40,2013-05-17 00:35:00
7:55 PM,55.4,33.8,44,30.01,10.0,NE,5.8,-,N/A,,Mostly Cloudy,40,2013-05-17 00:55:00
8:15 PM,55.4,32.0,41,30.02,10.0,NNE,5.8,-,N/A,,Mostly Cloudy,30,2013-05-17 01:15:00
8:35 PM,53.6,33.8,47,30.03,10.0,NE,5.8,-,N/A,,Overcast,40,2013-05-17 01:35:00
8:55 PM,51.8,33.8,50,30.04,10.0,NNE,4.6,-,N/A,,Overcast,20,2013-05-17 01:55:00
9:15 PM,51.8,33.8,50,30.05,10.0,NNE,4.6,-,N/A,,Overcast,20,2013-05-17 02:15:00
9:35 PM,51.8,35.6,54,30.06,10.0,North,4.6,-,N/A,,Overcast,10,2013-05-17 02:35:00
9:55 PM,51.8,35.6,54,30.06,10.0,North,4.6,-,N/A,,Overcast,10,2013-05-17 02:55:00
10:15 PM,51.8,35.6,54,30.06,10.0,NNE,5.8,-,N/A,,Overcast,20,2013-05-17 03:15:00
10:35 PM,51.8,33.8,50,30.06,10.0,North,5.8,-,N/A,,Overcast,10,2013-05-17 03:35:00
10:55 PM,51.8,33.8,50,30.07,10.0,NNE,4.6,-,N/A,,Mostly Cloudy,20,2013-05-17 03:55:00
11:15 PM,51.8,33.8,50,30.07,10.0,NNE,6.9,-,N/A,,Mostly Cloudy,20,2013-05-17 04:15:00
11:35 PM,51.8,35.6,54,30.06,10.0,NNE,8.1,-,N/A,,Partly Cloudy,20,2013-05-17 04:35:00
11:55 PM,50.0,35.6,58,30.06,10.0,NNE,8.1,-,N/A,,Scattered Clouds,20,2013-05-17 04:55:00